GW6325 Weather Reports


time (UTC)temp
C
wind
direction
speed
KPH
gust
KPH
rain 1hr
cm
rain 24hr
cm
rain mn
cm
humidity
%
barometer
mb
20260502161931 18 155 0.0 1.6 0.00 0.00 0.00 32 1021.7
20260502161426 17 97 1.6 3.2 0.00 0.00 0.00 34 1021.7
20260502160925 17 143 0.0 1.6 0.00 0.00 0.00 35 1021.7
20260502160422 16 128 1.6 1.6 0.00 0.00 0.00 36 1021.9
20260502151901 14 102 1.6 3.2 0.00 0.00 0.00 42 1021.9
20260502151357 15 97 1.6 3.2 0.00 0.00 0.00 41 1021.9
20260502150855 15 135 0.0 1.6 0.00 0.00 0.00 37 1021.9
20260502150351 15 147 0.0 1.6 0.00 0.00 0.00 41 1021.9
20260502130739 6 148 1.6 4.8 0.00 0.00 0.00 54 1021.4
20260502130237 5 146 3.2 3.2 0.00 0.00 0.00 59 1021.5
20260502123723 5 159 0.0 1.6 0.00 0.00 0.00 61 1021.1
20260502123219 5 170 1.6 1.6 0.00 0.00 0.00 61 1021.0
20260502122716 5 165 0.0 1.6 0.00 0.00 0.00 63 1021.1
20260502122212 5 161 0.0 0.0 0.00 0.00 0.00 63 1021.1
20260502121711 5 161 0.0 0.0 0.00 0.00 0.00 62 1020.9
20260502121208 5 163 0.0 1.6 0.00 0.00 0.00 61 1021.3
20260502120704 5 143 0.0 0.0 0.00 0.00 0.00 59 1021.1
20260502120201 5 135 1.6 1.6 0.00 0.00 0.00 60 1020.9
20260502115659 5 153 0.0 0.0 0.00 0.00 0.00 61 1021.1
20260502115155 5 140 0.0 0.0 0.00 0.00 0.00 62 1021.0
20260502114651 5 140 0.0 0.0 0.00 0.00 0.00 61 1021.3
20260502114149 5 123 1.6 3.2 0.00 0.00 0.00 59 1021.1
20260502113646 6 143 0.0 1.6 0.00 0.00 0.00 59 1021.1
20260502113144 5 118 1.6 1.6 0.00 0.00 0.00 60 1020.9
20260502112642 6 149 0.0 0.0 0.00 0.00 0.00 60 1021.1
20260502112139 6 162 0.0 0.0 0.00 0.00 0.00 60 1021.5
20260502111636 6 157 0.0 1.6 0.00 0.00 0.00 59 1021.4
20260502111134 6 170 0.0 1.6 0.00 0.00 0.00 59 1021.0
20260502110631 6 107 1.6 3.2 0.00 0.00 0.00 58 1021.3
20260502110128 6 165 0.0 1.6 0.00 0.00 0.00 58 1021.3
20260502105626 6 170 0.0 3.2 0.00 0.00 0.00 58 1021.1
20260502105123 6 140 0.0 1.6 0.00 0.00 0.00 58 1021.4
20260502104620 6 131 0.0 1.6 0.00 0.00 0.00 54 1021.3
20260502104118 6 165 1.6 3.2 0.00 0.00 0.00 53 1021.3
20260502103615 6 322 1.6 4.8 0.00 0.00 0.00 57 1021.4
20260502103113 6 141 0.0 0.0 0.00 0.00 0.00 58 1021.1
20260502102609 6 166 0.0 1.6 0.00 0.00 0.00 57 1021.3
20260502102106 6 163 0.0 0.0 0.00 0.00 0.00 55 1021.3
20260502101604 7 157 0.0 0.0 0.00 0.00 0.00 56 1021.3
20260502101102 7 147 1.6 1.6 0.00 0.00 0.00 55 1021.1
20260502100600 7 161 0.0 1.6 0.00 0.00 0.00 56 1021.1
20260502091032 9 150 0.0 0.0 0.00 0.00 0.00 47 1021.1
20260502090529 10 155 0.0 1.6 0.00 0.00 0.00 47 1020.9
20260502071424 9 163 3.2 3.2 0.00 0.00 0.00 49 1020.9
20260502070922 8 135 0.0 1.6 0.00 0.00 0.00 48 1021.1
20260502070420 8 164 0.0 1.6 0.00 0.00 0.00 53 1021.0
20260502065918 8 158 0.0 0.0 0.00 0.00 0.00 53 1020.9
20260502065416 8 161 0.0 0.0 0.00 0.00 0.00 53 1021.3
20260502064914 8 117 1.6 1.6 0.00 0.00 0.00 54 1020.9
20260502064411 8 161 0.0 1.6 0.00 0.00 0.00 53 1021.0
20260502063908 8 170 1.6 1.6 0.00 0.00 0.00 54 1020.9
20260502063406 9 171 1.6 1.6 0.00 0.00 0.00 53 1021.3
20260502062903 10 154 0.0 0.0 0.00 0.00 0.00 51 1021.0
20260502062400 10 175 1.6 1.6 0.00 0.00 0.00 50 1021.0
20260502061859 10 151 0.0 0.0 0.00 0.00 0.00 47 1020.9
20260502061357 10 149 0.0 0.0 0.00 0.00 0.00 46 1020.7
20260502060852 10 104 1.6 1.6 0.00 0.00 0.00 47 1020.8
20260502060347 10 152 0.0 3.2 0.00 0.00 0.00 47 1020.8
20260502055845 9 159 0.0 1.6 0.00 0.00 0.00 50 1020.7
20260502055343 9 152 0.0 1.6 0.00 0.00 0.00 51 1020.9
20260502054842 9 138 1.6 1.6 0.00 0.00 0.00 51 1020.9
20260502054339 10 158 0.0 0.0 0.00 0.00 0.00 51 1020.8
20260502053837 10 151 0.0 1.6 0.00 0.00 0.00 50 1020.6
20260502053334 10 158 0.0 0.0 0.00 0.00 0.00 49 1020.7
20260502052831 10 166 0.0 1.6 0.00 0.00 0.00 46 1020.8
20260502052329 10 149 1.6 1.6 0.00 0.00 0.00 46 1020.7
20260502051827 11 161 1.6 1.6 0.00 0.00 0.00 45 1020.6
20260502051326 11 162 1.6 3.2 0.00 0.00 0.00 44 1020.5
20260502050821 11 201 1.6 3.2 0.00 0.00 0.00 44 1020.7
20260502050318 11 151 0.0 1.6 0.00 0.00 0.00 46 1020.6
20260502045815 11 145 0.0 1.6 0.00 0.00 0.00 45 1020.5
20260502045312 12 159 0.0 1.6 0.00 0.00 0.00 44 1020.5
20260502044809 13 201 1.6 3.2 0.00 0.00 0.00 40 1020.6
20260502044305 12 88 1.6 3.2 0.00 0.00 0.00 38 1020.5
20260502043802 13 184 1.6 3.2 0.00 0.00 0.00 39 1020.5
20260502043300 13 137 0.0 1.6 0.00 0.00 0.00 38 1020.7
20260502042759 13 97 1.6 3.2 0.00 0.00 0.00 38 1020.3
20260502042256 12 140 0.0 0.0 0.00 0.00 0.00 40 1020.3
20260502041754 12 146 0.0 0.0 0.00 0.00 0.00 41 1020.6
20260502041251 12 154 0.0 0.0 0.00 0.00 0.00 42 1020.5
20260502040748 13 176 1.6 1.6 0.00 0.00 0.00 41 1020.3
20260502040245 13 161 0.0 1.6 0.00 0.00 0.00 39 1020.3
20260502035741 13 182 1.6 3.2 0.00 0.00 0.00 40 1020.5
20260502035238 13 163 0.0 1.6 0.00 0.00 0.00 39 1020.2
20260502034736 13 130 0.0 3.2 0.00 0.00 0.00 39 1020.2
20260502034233 14 141 0.0 1.6 0.00 0.00 0.00 38 1020.2
20260502033731 14 105 1.6 3.2 0.00 0.00 0.00 38 1020.1
20260502033229 14 142 0.0 1.6 0.00 0.00 0.00 38 1020.1
20260502032725 14 136 0.0 1.6 0.00 0.00 0.00 38 1020.0
20260502032221 14 139 0.0 4.8 0.00 0.00 0.00 40 1020.0
20260502031720 14 128 1.6 1.6 0.00 0.00 0.00 37 1019.9
20260502031217 14 133 0.0 1.6 0.00 0.00 0.00 40 1019.5
20260502030716 14 159 0.0 0.0 0.00 0.00 0.00 38 1019.8
20260502030214 15 163 0.0 0.0 0.00 0.00 0.00 37 1019.5
20260502025710 15 160 0.0 1.6 0.00 0.00 0.00 37 1019.4
20260502025208 15 143 0.0 0.0 0.00 0.00 0.00 36 1019.3
20260502024706 15 149 0.0 0.0 0.00 0.00 0.00 36 1019.4
20260502024204 15 147 0.0 0.0 0.00 0.00 0.00 36 1019.5
20260502023701 15 145 0.0 0.0 0.00 0.00 0.00 38 1019.2
20260502023158 15 146 0.0 0.0 0.00 0.00 0.00 39 1019.2
20260502022655 16 149 0.0 0.0 0.00 0.00 0.00 34 1019.2
20260502022152 16 149 0.0 0.0 0.00 0.00 0.00 35 1019.2
20260502021649 17 160 0.0 0.0 0.00 0.00 0.00 32 1019.1
20260502021147 17 162 0.0 1.6 0.00 0.00 0.00 31 1019.2
20260502020644 17 160 0.0 1.6 0.00 0.00 0.00 29 1019.2
20260502020140 18 171 1.6 3.2 0.00 0.00 0.00 28 1019.1
20260502015639 18 165 1.6 4.8 0.00 0.00 0.00 28 1019.1
20260502015134 18 153 1.6 6.4 0.00 0.00 0.00 28 1018.9
20260502014632 19 164 1.6 3.2 0.00 0.00 0.00 26 1019.1
20260502014129 19 146 0.0 1.6 0.00 0.00 0.00 26 1018.9
20260502013625 19 137 1.6 3.2 0.00 0.00 0.00 25 1019.0
20260502013121 20 124 3.2 4.8 0.00 0.00 0.00 25 1019.0
20260502012619 20 178 4.8 14.5 0.00 0.00 0.00 25 1018.9
20260502012116 20 167 1.6 9.7 0.00 0.00 0.00 24 1018.9
20260502011613 19 207 6.4 9.7 0.00 0.00 0.00 25 1018.8
20260502011108 20 171 6.4 9.7 0.00 0.00 0.00 24 1018.9
20260502010607 20 115 3.2 6.4 0.00 0.00 0.00 24 1018.9
20260502005600 20 122 1.6 4.8 0.00 0.00 0.00 25 1019.0
20260502005058 20 156 1.6 6.4 0.00 0.00 0.00 24 1018.6
20260502004553 20 203 4.8 11.3 0.00 0.00 0.00 25 1018.8
20260502004050 20 129 6.4 11.3 0.00 0.00 0.00 25 1018.8
20260502003548 20 177 4.8 9.7 0.00 0.00 0.00 25 1018.8
20260502003045 20 164 3.2 3.2 0.00 0.00 0.00 26 1018.9
20260502002541 20 214 4.8 6.4 0.00 0.00 0.00 24 1019.0
20260502002038 20 132 3.2 9.7 0.00 0.00 0.00 24 1018.8
20260502001536 20 185 3.2 9.7 0.00 0.00 0.00 24 1018.9
20260502001033 20 192 3.2 6.4 0.00 0.00 0.00 24 1019.0
20260502000532 20 158 4.8 4.8 0.00 0.00 0.00 24 1018.9
20260502000028 20 199 3.2 6.4 0.00 0.00 0.00 23 1019.1
20260501235524 20 224 4.8 4.8 0.00 0.00 0.00 24 1019.1
20260501235020 20 168 1.6 6.4 0.00 0.00 0.00 24 1018.9
20260501234516 20 186 3.2 6.4 0.00 0.00 0.00 25 1019.0
20260501234014 20 133 3.2 9.7 0.00 0.00 0.00 25 1019.1
20260501233512 20 148 1.6 6.4 0.00 0.00 0.00 24 1019.2
20260501233008 20 214 3.2 6.4 0.00 0.00 0.00 24 1019.2
20260501232504 20 212 4.8 9.7 0.00 0.00 0.00 24 1019.2
20260501232001 20 161 4.8 11.3 0.00 0.00 0.00 24 1019.2
20260501231500 20 231 6.4 11.3 0.00 0.00 0.00 24 1019.2
20260501230958 20 201 8.0 16.1 0.00 0.00 0.00 25 1019.1
20260501230456 20 221 3.2 9.7 0.00 0.00 0.00 25 1019.3
20260501225954 20 119 6.4 17.7 0.00 0.00 0.00 24 1019.4
20260501225451 20 316 3.2 6.4 0.00 0.00 0.00 24 1019.2
20260501224947 20 261 4.8 14.5 0.00 0.00 0.00 24 1019.2
20260501224445 20 232 8.0 12.9 0.00 0.00 0.00 23 1019.3
20260501223942 20 172 6.4 6.4 0.00 0.00 0.00 24 1019.5
20260501223438 20 245 4.8 9.7 0.00 0.00 0.00 25 1019.3
20260501222933 20 179 3.2 11.3 0.00 0.00 0.00 26 1019.8
20260501222431 20 226 4.8 9.7 0.00 0.00 0.00 26 1019.8
20260501221927 20 143 3.2 6.4 0.00 0.00 0.00 25 1019.8
20260501221424 20 148 4.8 9.7 0.00 0.00 0.00 24 1019.8
20260501220922 20 149 6.4 11.3 0.00 0.00 0.00 25 1019.8
20260501220420 20 120 1.6 6.4 0.00 0.00 0.00 25 1020.0
20260501215915 20 143 0.0 4.8 0.00 0.00 0.00 25 1020.1
20260501215412 20 189 3.2 16.1 0.00 0.00 0.00 26 1020.2
20260501214908 20 136 6.4 12.9 0.00 0.00 0.00 25 1020.1
20260501214403 20 150 4.8 6.4 0.00 0.00 0.00 24 1020.1
20260501213859 20 212 9.7 11.3 0.00 0.00 0.00 24 1020.2
20260501213355 19 214 11.3 16.1 0.00 0.00 0.00 25 1020.5
20260501212851 19 217 8.0 14.5 0.00 0.00 0.00 25 1020.1
20260501212348 19 177 9.7 14.5 0.00 0.00 0.00 25 1020.3
20260501211845 19 120 4.8 17.7 0.00 0.00 0.00 25 1020.7
20260501211343 19 164 6.4 12.9 0.00 0.00 0.00 26 1020.6
20260501210839 19 175 3.2 9.7 0.00 0.00 0.00 26 1020.6
20260501210337 19 139 6.4 11.3 0.00 0.00 0.00 26 1020.7
20260501205833 18 156 3.2 9.7 0.00 0.00 0.00 25 1020.5
20260501205330 19 154 4.8 12.9 0.00 0.00 0.00 25 1020.6
20260501204827 19 142 4.8 9.7 0.00 0.00 0.00 26 1020.6
20260501204323 20 194 4.8 12.9 0.00 0.00 0.00 25 1020.5
20260501203819 19 166 1.6 4.8 0.00 0.00 0.00 25 1020.5
20260501203317 19 207 3.2 14.5 0.00 0.00 0.00 26 1020.6
20260501202814 19 133 3.2 6.4 0.00 0.00 0.00 25 1020.7
20260501202311 19 97 3.2 14.5 0.00 0.00 0.00 24 1020.6
20260501201808 19 217 3.2 22.5 0.00 0.00 0.00 25 1020.6
20260501201304 18 143 9.7 14.5 0.00 0.00 0.00 24 1020.5
20260501200801 19 158 6.4 12.9 0.00 0.00 0.00 25 1020.6
20260501200258 18 190 6.4 6.4 0.00 0.00 0.00 25 1020.6
20260501195755 18 212 3.2 14.5 0.00 0.00 0.00 26 1020.6
20260501195251 18 121 3.2 9.7 0.00 0.00 0.00 26 1020.8
20260501194748 18 117 4.8 16.1 0.00 0.00 0.00 25 1020.9
20260501194243 18 169 4.8 11.3 0.00 0.00 0.00 28 1020.8
20260501193740 18 189 11.3 12.9 0.00 0.00 0.00 24 1020.8
20260501193239 19 128 3.2 12.9 0.00 0.00 0.00 24 1020.7
20260501192736 18 138 1.6 6.4 0.00 0.00 0.00 26 1020.8
20260501192232 18 128 3.2 11.3 0.00 0.00 0.00 24 1021.0
20260501191730 18 199 8.0 11.3 0.00 0.00 0.00 24 1021.1
20260501191227 18 152 0.0 6.4 0.00 0.00 0.00 28 1021.0
20260501190723 18 144 6.4 12.9 0.00 0.00 0.00 25 1021.3
20260501190219 18 149 0.0 9.7 0.00 0.00 0.00 26 1021.1
20260501185715 18 191 6.4 9.7 0.00 0.00 0.00 26 1021.3
20260501185211 18 165 3.2 11.3 0.00 0.00 0.00 26 1021.1
20260501184707 18 215 3.2 6.4 0.00 0.00 0.00 26 1021.3
20260501184202 18 233 6.4 6.4 0.00 0.00 0.00 24 1021.4
20260501183659 18 167 1.6 6.4 0.00 0.00 0.00 25 1021.4
20260501183156 17 142 0.0 3.2 0.00 0.00 0.00 27 1021.4
20260501182652 17 80 6.4 11.3 0.00 0.00 0.00 21 1021.4
20260501182149 17 63 4.8 9.7 0.00 0.00 0.00 23 1021.6
20260501181646 18 65 4.8 6.4 0.00 0.00 0.00 22 1021.6
20260501181143 18 105 3.2 6.4 0.00 0.00 0.00 20 1021.7
20260501180641 18 80 3.2 4.8 0.00 0.00 0.00 21 1021.8
20260501180137 17 145 0.0 3.2 0.00 0.00 0.00 24 1021.7
20260501175634 17 209 4.8 6.4 0.00 0.00 0.00 23 1021.6
20260501175131 17 237 4.8 11.3 0.00 0.00 0.00 22 1021.8
20260501174627 16 168 4.8 16.1 0.00 0.00 0.00 22 1021.7
20260501174125 17 200 3.2 16.1 0.00 0.00 0.00 24 1021.7
20260501173622 17 177 0.0 11.3 0.00 0.00 0.00 23 1021.8
20260501173119 17 240 6.4 12.9 0.00 0.00 0.00 22 1021.9
20260501172615 17 197 9.7 12.9 0.00 0.00 0.00 24 1021.9
20260501172110 17 264 14.5 16.1 0.00 0.00 0.00 22 1021.8
20260501171606 17 203 6.4 9.7 0.00 0.00 0.00 24 1022.2
20260501171104 17 265 6.4 16.1 0.00 0.00 0.00 25 1021.9
20260501170600 16 55 6.4 9.7 0.00 0.00 0.00 23 1021.9
20260501170057 16 177 3.2 14.5 0.00 0.00 0.00 24 1021.9
20260501165555 16 267 8.0 11.3 0.00 0.00 0.00 25 1021.7
20260501165052 16 79 4.8 14.5 0.00 0.00 0.00 24 1022.2
20260501164550 16 65 3.2 14.5 0.00 0.00 0.00 25 1022.2
20260501164046 15 43 9.7 14.5 0.00 0.00 0.00 24 1022.0
20260501163543 15 25 8.0 22.5 0.00 0.00 0.00 24 1022.0
20260501163040 15 329 6.4 12.9 0.00 0.00 0.00 24 1022.2
20260501162536 15 7 8.0 16.1 0.00 0.00 0.00 25 1021.9